Regional Weather Roundup
Issued by NWS

Home | Current Version | Previous Version | Text Only | Print | Product List | Glossary Off
Versions: 1 2 3 4 5 6 7 8 9 10 11 12 13 14 15 16 17 18 19 20 21 22 23 24 25 26 27 28 29 30 31 32 33 34 35 36 37 38 39 40 41 42 43 44 45 46 47 48 49 50

000
ASUS45 KTFX 301304
RWRMT
MONTANA HOURLY WEATHER ROUNDUP
NATIONAL WEATHER SERVICE GREAT FALLS MT
704 AM MDT MON MAR 30 2015

NOTE: "FAIR" INDICATES FEW OR NO CLOUDS BELOW 12000 FEET WITH NO
SIGNIFICANT WEATHER AND/OR OBSTRUCTIONS TO VISIBILITY.

* THESE STATIONS ARE NOT UNDER NWS QUALITY CONTROL. THEY DO NOT
   REPORT WEATHER SUCH AS PRECIPITATION OR FOG.

MTZ001>007-043-301400-
WEST OF THE DIVIDE
CITY           SKY/WX    TMP DP  RH WIND       PRES   REMARKS
KALISPELL      PTCLDY    28  28 100 CALM      30.14R
MISSOULA       MOCLDY    34  28  79 CALM      30.18F
BUTTE          MOCLDY    30  25  82 CALM      30.18S
MULLAN PASS    PTCLDY    36  27  70 SW8       30.14F WCI  30
* ESSEX        N/A       31  29  92 N/A        N/A
* LINCOLN      N/A       41  30  65 S2G8       N/A
* LOOKOUT PASS N/A       33  30  89 S2         N/A
* POLSON       N/A       39  33  79 N/A        N/A
* SEELEY LAKE  N/A       26  24  92 NE1        N/A
* THOMP F APT  PTCLDY    34  18  52 NE2G7      N/A
* YAAK HILL    N/A       37  35  92 E1         N/A
$$

MTZ008-052>055-301400-
SOUTHWEST MONTANA
CITY           SKY/WX    TMP DP  RH WIND       PRES   REMARKS
BOZEMAN        PTCLDY    30  25  82 S6        30.16S WCI  24
DILLON         PTCLDY    37  23  57 SW15      30.17S WCI  28
* W YELLOWSTON PTCLDY    24  20  85 N2         N/A
* BOULDER HILL N/A       40  23  51 S4         N/A
* HOMESTAKE PS N/A       33  24  70 SW1        N/A
* MONIDA PASS  N/A       27  18  69 W2         N/A
* RAYNOLDS PAS N/A       27  14  58 S9         N/A   WCI  18
* WHITEHALL    N/A       36  26  67 N1G9       N/A
* WISE RIVER   N/A       27  24  88 W5         N/A   WCI  21
$$

MTZ009>010-012-014-046-048-049-054-301400-
EAST SLOPES AND CENTRAL MONTANA
CITY           SKY/WX    TMP DP  RH WIND       PRES   REMARKS
CUT BANK       MOCLDY    39  30  70 W14       30.03F WCI  31
GREAT FALLS    MOCLDY    43  30  60 SW14      30.05S
HELENA         CLOUDY    43  28  56 CALM      30.13R
* DEARBORN     N/A       53  30  41 S2G8       N/A
* EAST GLACIER N/A       43  29  58 W14G22     N/A
* MONARCH      N/A       43  20  40 SW11G17    N/A
* PENDROY      N/A       44  28  53 W10        N/A
* ROGERS PASS  N/A       41  29  62 SE6G16     N/A
* SAINT MARY   N/A       44  30  58 S9G24      N/A
$$

MTZ011-013-016-021-035-040-045-047-050-051-301400-
NORTH CENTRAL MONTANA
CITY           SKY/WX    TMP DP  RH WIND       PRES   REMARKS
HAVRE          PTCLDY    37  30  76 SW9       30.02R WCI  30
LEWISTOWN      CLEAR     37  28  70 SW14      30.07S WCI  28
* N BAR RANCH  CLEAR     43  27  53 NW8       30.08R
* CHESTER      N/A       41  30  65 N2         N/A
* DENTON       N/A       42  27  55 W9         N/A
* GEYSER       N/A       39  23  53 W8         N/A   WCI  33
* JUDITH GAP   N/A       39  21  48 SE8        N/A   WCI  33
* LOMA         N/A       45  31  58 SW9        N/A
$$

MTZ017>020-022>027-061-062-301400-
NORTHEAST MONTANA
CITY           SKY/WX    TMP DP  RH WIND       PRES   REMARKS
GLASGOW        PTCLDY    43  32  65 W8        29.95R
GLENDIVE       MOCLDY    45  32  60 W10       29.96R
JORDAN         MOCLDY    45  34  65 NW10      29.99R
SIDNEY         PTCLDY    48  32  54 W10       29.90S
WOLF POINT     PTCLDY    43  34  71 W10       29.93R
* BEAVER HILL  N/A       45  31  58 SW12G19    N/A
* CIRCLE       N/A       44  34  68 N/A        N/A
* LINDSAY DVD  N/A       47  32  56 W22G28     N/A
* NAVAJO       N/A       40  33  76 NW16       N/A   WCI  32
* SACO         N/A       40  32  73 S3         N/A
$$

MTZ028>042-056>058-301400-
SOUTHCENTRAL AND SOUTHEAST MONTANA
CITY           SKY/WX    TMP DP  RH WIND       PRES   REMARKS
BAKER          MOCLDY    43  30  60 W16       29.97R
BILLINGS       CLOUDY    52  27  38 NW10      30.08R
LIVINGSTON     MOCLDY    45  25  45 W7        30.13R
MILES CITY     MOCLDY    45  28  51 W6        30.01R
* ALZADA       N/A       38  27  65 W4         N/A
* HYSHAM       N/A       44  23  43 W4         N/A
* LAME DEER    N/A       44  24  45 W11        N/A
* REED POINT   N/A       51  27  39 W9G19      N/A
* ROSCOE HILL  N/A       44  11  26 SE6        N/A
$$

REGIONAL REPORTS...DAKOTAS
CITY           SKY/WX    TMP DP  RH WIND       PRES   REMARKS
WILLISTON      CLEAR     39  32  76 SW5       29.86R WCI  35
DICKINSON      CLOUDY    43  30  60 W14       29.87S
CROSBY         CLEAR     39  36  89 W13       29.83R WCI  31
WATFORD CITY   CLEAR     43  32  65 W10       29.85R
BISMARCK       PTCLDY    36  28  73 SW3       29.85S
GRAND FORKS    CLOUDY    36  32  85 SE6       29.85F WCI  31
FARGO          CLOUDY    37  30  76 SE7       29.87F WCI  32
BUFFALO SD     PTCLDY    39  28  65 W10       29.92R WCI  32
RAPID CITY     PTCLDY    43  21  42 W8        30.00S
$$

REGIONAL REPORTS...WYOMING/IDAHO/WASHINGTON
CITY           SKY/WX    TMP DP  RH WIND       PRES   REMARKS
GILLETTE       CLOUDY    43  25  49 W12       30.08R
SHERIDAN       CLOUDY    34  25  70 S3        30.10R
CODY           CLOUDY    46  18  33 CALM      30.14R
YELLOWSTONE LA PTCLDY    19  16  88 CALM      30.27S
SALMON         CLEAR     27  23  85 CALM      30.22S
MULLAN PASS    PTCLDY    36  27  70 SW8       30.14S WCI  30
SAND POINT     PTCLDY    36  36 100 CALM      30.12F
SPOKANE        FAIR      43  36  76 SE8       30.09F

$$




USA.gov is the U.S. government's official web portal to all federal, state and local government web resources and services.